Wind_Speed
13 14 13 13 14 15 16 17 16 14 14 14 15 16 16 17 18 21 22 14 12 9 10 11 11 9 9 9 7 5 6 4 5 4 11 15 10 9 7 13 10 13 9 21 26
14 14 14 14 14 14 15 17 17 16 15 15 14 15 18 18 20 22 19 20 16 14 17 17 14 13 10 8 6 9 7 5 4 1 12 17 13 15 10 14 12 13 10 26 27
16 16 16 15 15 14 14 16 17 18 16 16 16 16 17 19 19 6 4 4 16 17 14 16 12 13 13 10 10 8 11 6 1 2 13 20 13 14 11 12 14 18 19 29 29
16 17 17 18 17 16 15 15 16 17 18 17 17 17 18 15 6 3 5 13 6 17 16 19 17 17 13 13 13 10 11 10 5 8 13 18 17 13 12 4 15 17 22 31 29
18 18 17 18 19 19 17 17 17 17 17 19 18 18 18 10 17 17 16 10 8 12 20 23 22 22 16 12 11 12 11 9 9 9 13 16 16 10 14 9 13 18 24 30 29
20 20 20 19 19 19 20 20 18 18 17 18 19 17 14 16 10 9 5 6 4 17 20 24 19 24 11 13 12 5 8 9 10 12 14 15 11 12 14 14 13 21 25 29 29
20 21 22 22 22 20 20 21 22 20 20 18 18 17 15 22 13 19 17 10 10 16 18 26 20 21 16 11 14 10 11 5 10 15 10 15 11 14 12 16 15 21 23 27 28
19 20 21 23 24 23 20 21 22 22 21 19 16 11 11 12 14 12 10 11 9 14 17 16 27 17 19 9 8 14 14 12 11 16 10 16 12 17 16 19 17 19 23 27 28
23 22 19 19 21 23 22 21 22 21 20 17 9 5 9 8 5 5 8 10 10 12 9 15 20 19 19 14 15 15 14 13 12 15 7 16 7 16 18 19 18 19 23 26 26
22 24 22 21 20 19 19 19 18 18 14 9 9 6 10 6 10 2 5 12 12 16 11 17 17 15 15 16 17 18 17 11 14 15 13 17 10 5 15 20 20 21 23 25 27
23 24 23 22 21 19 13 11 7 5 7 11 9 15 9 6 6 6 7 15 12 19 14 21 19 21 23 21 20 17 15 13 16 14 17 15 13 10 12 17 20 21 24 25 27
24 26 24 21 21 15 9 6 3 4 15 20 29 29 27 14 12 22 17 18 17 17 18 15 22 22 22 21 23 20 18 17 14 8 15 12 14 12 13 18 21 24 25 26 25
24 26 25 21 17 4 12 3 2 9 9 13 13 12 9 21 15 17 30 26 20 21 21 19 19 20 19 22 23 22 21 18 16 11 15 10 14 14 16 18 20 23 26 28 28
22 25 26 23 7 14 3 4 10 9 6 6 7 7 9 8 8 14 33 28 18 23 21 20 19 23 17 23 22 23 22 19 16 12 13 16 12 14 15 16 18 25 28 29 31
26 23 25 22 19 8 7 7 7 1 6 8 9 7 8 10 3 7 23 30 21 18 21 20 23 21 23 23 24 24 21 20 20 15 18 15 10 13 5 14 19 26 32 33 33
25 20 26 21 19 9 4 3 1 7 9 7 9 12 11 13 5 6 17 24 21 20 17 23 19 20 21 21 22 19 16 12 17 15 18 24 15 15 13 15 16 18 29 34 34
27 23 19 21 10 9 7 3 6 10 4 10 10 13 11 7 10 11 18 21 18 20 21 20 22 16 20 21 23 22 17 11 15 15 15 18 20 16 12 12 16 16 22 31 34
27 27 20 19 15 15 10 8 14 5 18 4 5 11 13 9 9 14 16 19 25 22 15 18 20 27 17 28 25 26 25 16 23 15 14 21 16 18 19 22 26 18 17 24 34
27 23 19 10 8 13 14 15 10 16 10 14 14 15 16 14 8 10 19 20 23 25 23 20 25 24 25 18 27 28 25 26 25 20 16 17 14 22 17 15 17 16 16 22 31
30 22 15 10 11 13 11 24 20 16 9 13 17 12 13 17 14 13 16 16 20 24 22 15 13 24 23 21 25 29 21 24 20 26 23 20 18 11 18 19 17 14 18 22 27
17 10 6 9 10 15 14 22 21 29 18 18 18 20 13 15 14 12 8 11 16 19 22 22 13 15 23 27 28 20 23 21 23 21 19 18 19 16 16 15 15 12 17 19 23
10 5 5 4 11 14 16 19 15 17 27 25 17 20 19 16 16 14 12 9 9 16 24 22 15 15 19 27 29 26 25 26 17 27 20 22 18 12 13 17 23 25 19 12 17
10 15 10 11 8 13 15 15 16 21 21 21 27 22 19 18 20 17 16 13 10 10 14 20 18 14 19 19 18 27 31 27 26 20 26 20 18 16 9 12 16 14 17 11 12
9 4 9 11 19 12 16 13 19 18 19 25 21 20 23 23 19 10 12 13 11 17 7 6 18 22 16 22 21 25 26 30 30 23 23 26 21 21 18 16 18 19 22 14 12
9 5 2 6 7 5 11 14 14 15 15 16 21 22 19 20 21 20 17 10 10 9 6 6 15 16 21 21 19 24 28 28 31 32 29 23 29 24 22 20 20 25 23 17 16
7 7 6 15 16 14 12 13 14 14 9 16 16 19 21 20 19 17 21 18 17 14 15 13 11 10 17 22 24 23 26 27 26 27 31 33 31 23 31 32 31 30 29 21 22
9 10 9 11 8 7 11 13 9 6 12 18 15 11 9 8 9 11 12 15 14 12 13 14 13 10 16 15 20 24 27 27 29 27 24 25 28 30 27 22 29 31 27 25 26
Wind_Direction
319 319 320 319 318 318 315 315 315 313 311 317 317 314 316 307 303 299 294 271 275 238 232 205 191 195 193 220 227 247 249 143 97 247 127 153 155 157 133 143 166 165 151 158 158
321 319 318 316 314 315 314 312 311 310 307 306 312 314 315 318 308 295 280 268 244 218 204 189 189 190 213 221 212 233 272 84 31 171 148 162 167 160 168 162 173 163 141 158 161
322 320 318 316 316 315 312 312 309 307 306 301 304 309 313 320 317 258 51 28 211 196 200 199 205 201 233 230 212 211 262 88 178 196 164 167 176 169 171 180 181 176 160 164 167
320 317 315 316 316 313 311 307 305 304 304 302 300 304 308 314 292 192 282 311 306 192 197 200 204 213 229 221 221 253 239 276 285 172 184 170 165 178 176 130 179 179 172 169 175
324 319 315 313 312 311 308 305 304 300 299 299 300 302 305 285 267 272 276 267 237 209 206 202 205 211 231 229 229 240 262 266 260 208 190 178 175 166 181 146 170 173 173 178 180
326 322 317 311 310 310 309 305 300 298 296 295 296 298 294 270 268 268 236 261 223 204 208 207 215 213 253 240 228 272 251 265 251 192 182 186 173 175 182 176 171 175 179 183 186
325 321 318 315 314 312 310 306 301 299 295 293 290 291 275 260 265 268 264 258 235 208 211 214 210 201 222 230 228 228 238 219 225 174 173 195 178 209 156 174 171 183 186 187 192
323 320 321 320 318 314 312 306 301 301 297 293 289 281 261 268 262 262 247 231 213 204 211 223 207 236 237 230 200 218 229 220 162 174 168 195 197 198 170 176 180 185 187 190 194
328 321 320 318 316 315 316 309 304 300 295 292 286 224 271 266 224 175 197 195 190 178 188 184 193 220 206 216 213 208 227 217 156 192 160 201 242 161 184 191 186 189 189 191 196
330 326 324 321 318 317 319 314 306 300 287 278 253 248 241 219 173 195 181 177 167 173 164 180 195 202 220 209 213 209 224 192 198 189 194 200 223 139 188 202 199 193 195 196 199
331 326 322 323 320 326 322 332 321 274 273 242 284 255 257 224 211 217 184 179 174 178 190 191 201 208 207 215 229 225 211 216 215 157 203 215 221 191 192 209 210 202 201 203 206
331 328 324 323 324 329 327 315 288 300 293 267 259 256 253 243 258 237 206 195 195 199 203 182 214 211 223 217 230 239 225 220 194 169 218 218 233 228 197 214 211 208 207 210 209
327 326 325 327 329 345 333 177 85 331 267 283 244 242 237 200 224 238 198 207 201 207 199 209 204 218 215 222 223 225 230 219 218 183 229 249 234 233 213 210 216 216 213 213 211
327 324 327 330 355 333 349 215 315 333 271 213 203 194 170 180 228 224 202 199 213 213 202 220 213 205 206 225 218 226 223 234 223 205 226 205 245 228 217 206 213 214 213 215 213
327 325 322 325 313 313 254 297 299 260 280 124 152 168 177 211 10 176 194 201 208 214 204 206 208 194 216 215 218 233 228 220 246 219 241 181 241 256 184 228 217 218 215 213 212
321 323 313 319 311 308 223 295 159 230 238 183 170 184 186 204 201 132 184 207 222 216 219 229 202 215 219 216 224 227 250 235 235 235 232 234 212 233 218 231 243 224 217 214 211
314 314 303 295 280 269 253 229 224 236 108 187 193 195 203 189 191 184 185 196 200 202 206 215 206 214 214 211 211 217 213 209 218 226 239 211 234 230 249 221 241 261 209 214 211
314 314 306 285 268 248 208 219 232 237 218 122 205 189 226 200 212 198 193 206 215 211 211 209 213 207 196 213 202 214 216 224 220 221 220 231 236 234 234 259 259 256 245 202 208
321 320 304 277 230 199 203 216 223 231 234 239 219 232 225 208 251 210 216 215 212 218 225 207 227 200 217 214 220 204 221 229 243 229 246 226 211 240 245 245 247 243 220 205 206
330 319 285 239 214 186 221 234 227 255 250 238 228 213 230 217 208 212 215 220 221 213 224 224 233 220 200 214 220 227 210 220 231 238 228 234 240 221 219 226 241 210 217 211 207
333 306 245 285 191 200 227 225 233 245 249 253 238 246 234 242 230 221 239 207 212 199 215 228 213 212 211 207 210 208 223 219 234 228 242 239 236 226 236 256 269 263 216 221 209
317 279 279 182 239 230 239 239 258 253 230 246 254 252 242 238 233 224 227 230 200 221 202 212 216 229 216 222 215 222 213 215 221 224 236 246 245 214 225 230 241 247 260 231 222
293 284 271 224 252 245 248 250 257 254 242 239 234 241 241 238 236 247 234 243 247 222 215 207 225 212 230 218 206 229 224 221 227 238 225 227 230 245 205 246 270 249 241 242 231
289 287 230 220 248 281 286 285 266 248 257 255 253 237 226 229 231 245 218 223 229 229 17 273 222 220 222 222 218 210 228 232 229 231 232 240 238 225 219 229 250 256 249 246 234
259 257 306 284 240 309 291 287 286 275 255 248 244 245 223 221 220 217 237 228 222 186 194 229 237 233 231 255 238 232 219 223 233 240 239 236 235 235 240 247 244 253 255 240 224
277 305 321 289 280 280 269 259 265 268 261 260 238 230 234 235 233 230 228 235 242 226 233 224 252 262 247 244 242 237 233 239 230 236 241 241 247 236 232 236 247 247 247 234 225
253 268 270 280 260 274 266 258 276 345 271 255 293 309 284 281 311 293 288 284 280 250 234 231 236 215 245 233 233 240 241 227 229 239 232 234 237 239 247 243 231 237 233 234 227
Height
1531 1529 1527 1526 1524 1522 1520 1518 1516 1515 1513 1511 1509 1506 1505 1502 1501 1498 1496 1499 1501 1502 1503 1504 1506 1507 1509 1509 1508 1505 1492 1495 1493 1494 1500 1507 1509 1516 1519 1524 1528 1531 1532 1538 1543
1529 1527 1525 1523 1522 1520 1518 1516 1514 1512 1510 1508 1507 1505 1502 1500 1497 1494 1493 1491 1494 1498 1500 1502 1506 1507 1506 1504 1504 1500 1487 1489 1490 1490 1496 1505 1508 1514 1519 1523 1527 1532 1535 1539 1543
1527 1524 1522 1521 1519 1517 1515 1513 1511 1509 1507 1505 1503 1502 1500 1497 1494 1488 1488 1486 1488 1494 1500 1502 1505 1506 1502 1499 1498 1492 1489 1488 1491 1494 1494 1502 1507 1512 1514 1519 1522 1529 1534 1539 1543
1525 1523 1520 1518 1516 1514 1511 1509 1507 1506 1504 1502 1501 1499 1497 1497 1491 1487 1486 1487 1490 1492 1497 1499 1502 1502 1498 1494 1492 1492 1488 1490 1489 1496 1496 1499 1504 1509 1514 1515 1521 1527 1533 1537 1542
1523 1521 1518 1516 1513 1510 1508 1505 1503 1501 1500 1498 1497 1496 1495 1493 1488 1486 1484 1485 1486 1489 1492 1495 1496 1496 1491 1488 1489 1489 1487 1487 1489 1494 1495 1499 1502 1506 1513 1517 1520 1526 1532 1536 1541
1520 1517 1515 1513 1510 1508 1505 1501 1499 1497 1496 1494 1492 1493 1492 1490 1483 1482 1482 1483 1485 1486 1488 1492 1492 1492 1488 1486 1486 1482 1485 1485 1486 1490 1495 1498 1502 1507 1510 1515 1520 1525 1529 1534 1539
1516 1513 1511 1508 1507 1505 1502 1498 1495 1493 1490 1490 1488 1488 1487 1482 1479 1478 1479 1480 1481 1483 1486 1487 1491 1491 1488 1485 1485 1484 1486 1487 1485 1488 1493 1496 1504 1504 1507 1514 1518 1523 1528 1532 1536
1514 1511 1508 1505 1502 1500 1498 1495 1491 1488 1486 1484 1484 1484 1480 1475 1474 1474 1475 1477 1477 1479 1483 1486 1489 1489 1486 1483 1483 1483 1480 1482 1482 1487 1491 1495 1491 1498 1505 1511 1515 1520 1524 1529 1533
1511 1508 1505 1502 1498 1495 1493 1490 1487 1484 1481 1480 1481 1481 1475 1470 1471 1472 1471 1474 1476 1478 1481 1484 1488 1486 1485 1482 1480 1475 1481 1477 1483 1484 1489 1494 1487 1492 1502 1506 1511 1517 1521 1525 1530
1507 1503 1501 1498 1495 1492 1489 1485 1482 1479 1477 1477 1477 1482 1470 1468 1469 1470 1470 1472 1474 1477 1480 1483 1484 1479 1477 1473 1482 1476 1477 1468 1474 1481 1484 1489 1485 1493 1499 1502 1505 1512 1517 1521 1524
1506 1501 1498 1495 1491 1488 1486 1484 1483 1480 1474 1470 1466 1462 1464 1466 1466 1468 1468 1470 1471 1472 1470 1473 1475 1471 1466 1464 1461 1460 1466 1469 1463 1468 1479 1479 1481 1483 1496 1499 1500 1506 1511 1515 1518
1503 1498 1495 1492 1488 1486 1484 1485 1483 1483 1471 1463 1458 1457 1459 1463 1462 1459 1465 1466 1465 1463 1463 1469 1467 1462 1463 1463 1464 1460 1465 1465 1458 1467 1475 1471 1477 1478 1484 1493 1495 1499 1504 1509 1514
1502 1496 1491 1489 1486 1484 1482 1484 1482 1480 1474 1451 1450 1450 1450 1452 1453 1449 1455 1457 1456 1457 1456 1459 1456 1459 1460 1461 1464 1460 1462 1461 1461 1469 1471 1469 1477 1473 1474 1484 1490 1493 1497 1502 1506
1499 1494 1489 1486 1487 1483 1484 1482 1481 1480 1466 1439 1442 1443 1446 1447 1445 1442 1445 1451 1451 1449 1450 1454 1450 1455 1462 1463 1458 1462 1451 1455 1458 1468 1483 1467 1484 1463 1460 1472 1480 1486 1489 1493 1498
1497 1494 1487 1485 1484 1483 1483 1481 1481 1481 1469 1434 1435 1439 1440 1441 1437 1437 1441 1446 1443 1444 1446 1446 1447 1454 1457 1454 1452 1455 1447 1455 1457 1461 1467 1465 1479 1461 1457 1464 1466 1472 1477 1482 1488
1491 1490 1484 1483 1480 1479 1479 1480 1480 1476 1461 1429 1428 1431 1433 1433 1432 1437 1440 1442 1442 1442 1441 1440 1443 1444 1446 1448 1450 1451 1453 1452 1454 1458 1474 1458 1467 1463 1454 1457 1453 1457 1467 1473 1480
1486 1484 1481 1478 1479 1477 1478 1480 1472 1457 1429 1425 1424 1424 1422 1423 1425 1428 1434 1437 1436 1446 1444 1442 1437 1439 1440 1446 1447 1450 1456 1475 1481 1474 1472 1447 1459 1456 1441 1441 1445 1445 1451 1464 1472
1480 1476 1473 1471 1469 1471 1474 1476 1460 1427 1425 1418 1420 1419 1424 1418 1419 1419 1425 1430 1428 1427 1429 1443 1449 1432 1432 1432 1439 1444 1445 1456 1480 1472 1465 1448 1461 1448 1440 1441 1441 1440 1446 1453 1462
1474 1470 1466 1465 1464 1466 1472 1454 1431 1424 1421 1419 1415 1420 1415 1413 1420 1417 1416 1415 1415 1418 1428 1426 1431 1421 1425 1430 1429 1434 1441 1432 1443 1437 1449 1439 1443 1437 1432 1436 1436 1437 1441 1443 1450
1471 1467 1461 1458 1459 1462 1460 1437 1421 1423 1417 1416 1416 1406 1410 1405 1415 1411 1406 1403 1406 1409 1412 1414 1430 1416 1418 1427 1423 1419 1425 1448 1434 1458 1463 1447 1441 1441 1432 1428 1425 1427 1433 1436 1442
1474 1468 1458 1456 1456 1455 1435 1425 1422 1421 1423 1418 1411 1409 1408 1407 1408 1402 1401 1399 1399 1401 1409 1410 1421 1417 1418 1418 1418 1422 1422 1423 1425 1430 1447 1455 1439 1416 1425 1424 1423 1420 1425 1429 1434
1475 1465 1455 1455 1455 1436 1425 1419 1421 1418 1416 1417 1412 1406 1406 1406 1406 1405 1404 1399 1396 1397 1404 1405 1410 1423 1412 1404 1407 1404 1414 1416 1428 1438 1424 1429 1426 1404 1409 1417 1419 1418 1416 1419 1426
1473 1462 1456 1453 1442 1429 1423 1421 1418 1419 1411 1409 1406 1405 1404 1403 1409 1402 1398 1399 1400 1396 1396 1396 1406 1419 1418 1406 1403 1405 1404 1406 1409 1411 1415 1434 1427 1404 1408 1413 1414 1416 1416 1418 1422
1476 1455 1446 1446 1441 1437 1428 1426 1420 1413 1411 1406 1401 1397 1400 1400 1397 1399 1397 1395 1398 1397 1400 1395 1395 1404 1405 1401 1393 1406 1402 1398 1402 1406 1413 1405 1411 1404 1405 1411 1411 1410 1413 1416 1418
1472 1454 1452 1438 1431 1439 1437 1431 1423 1414 1410 1406 1402 1395 1392 1397 1396 1396 1397 1392 1397 1397 1398 1397 1402 1390 1391 1386 1384 1388 1392 1398 1397 1395 1401 1398 1400 1399 1400 1403 1406 1406 1406 1411 1414
1469 1461 1457 1452 1446 1441 1434 1427 1420 1416 1415 1408 1401 1394 1391 1392 1391 1392 1393 1393 1393 1390 1390 1391 1400 1391 1391 1384 1383 1387 1384 1385 1386 1387 1386 1392 1389 1385 1392 1399 1400 1400 1399 1404 1408
1464 1464 1464 1448 1441 1438 1428 1423 1420 1421 1419 1414 1409 1407 1402 1396 1395 1393 1394 1395 1392 1391 1390 1390 1391 1396 1394 1375 1378 1388 1375 1374 1380 1377 1379 1387 1380 1386 1385 1385 1388 1390 1394 1397 1399